VRG8844 SBGL-SAEZ

Flight info

Callsign VRG8844
Flight time 2h 51m
Altitude 38000
Route ORIRI1A BITAK UN857 NELOX UM534 DADUT UN741 PAPIX PAPIX7A
Aircraft MD11/H-SDE1E2E3FGHIJ2J3J4J5M1RWXY/LB1D1

Departure

Time 2026-04-30 02:50
Airport Rio Galeão – Tom Jobim International Airport (SBGL)

Arrival

Time 2026-04-30 05:41
Airport Ezeiza International Airport - Ministro Pistarini (SAEZ)
Time Latitude Longitude Altitude Speed Heading
2026-04-30 02:14 -22.81788 -43.24412 29 ft 0 kts 123°
2026-04-30 02:35 -22.81789 -43.24412 29 ft 0 kts 130°
2026-04-30 02:36 -22.81791 -43.24411 29 ft 0 kts 141°
2026-04-30 02:36 -22.81795 -43.24411 28 ft 1 kts 162°
2026-04-30 02:36 -22.81798 -43.24413 28 ft 1 kts 184°
2026-04-30 02:36 -22.81802 -43.24416 28 ft 1 kts 208°
2026-04-30 02:37 -22.81803 -43.24421 28 ft 1 kts 235°
2026-04-30 02:37 -22.81804 -43.24430 28 ft 1 kts 264°
2026-04-30 02:37 -22.81799 -43.24435 28 ft 1 kts 301°
2026-04-30 02:37 -22.81774 -43.24468 29 ft 7 kts 308°
2026-04-30 02:38 -22.81761 -43.24494 29 ft 1 kts 277°
2026-04-30 02:38 -22.81769 -43.24506 29 ft 1 kts 228°
2026-04-30 02:38 -22.81772 -43.24507 29 ft 0 kts 218°
2026-04-30 02:40 -22.81793 -43.24525 29 ft 6 kts 217°
2026-04-30 02:41 -22.81822 -43.24550 29 ft 5 kts 219°
2026-04-30 02:41 -22.81862 -43.24588 29 ft 9 kts 221°
2026-04-30 02:41 -22.81911 -43.24629 29 ft 10 kts 214°
2026-04-30 02:41 -22.81981 -43.24647 29 ft 9 kts 179°
2026-04-30 02:42 -22.82036 -43.24676 29 ft 10 kts 212°
2026-04-30 02:42 -22.82098 -43.24720 28 ft 10 kts 213°
2026-04-30 02:42 -22.82155 -43.24709 27 ft 12 kts 141°
2026-04-30 02:42 -22.82216 -43.24627 27 ft 14 kts 127°
2026-04-30 02:43 -22.82261 -43.24557 27 ft 10 kts 125°
2026-04-30 02:43 -22.82301 -43.24496 26 ft 12 kts 125°
2026-04-30 02:43 -22.82358 -43.24414 28 ft 14 kts 128°
2026-04-30 02:43 -22.82407 -43.24355 27 ft 8 kts 131°
2026-04-30 02:44 -22.82447 -43.24293 28 ft 10 kts 123°
2026-04-30 02:44 -22.82484 -43.24231 28 ft 12 kts 123°
2026-04-30 02:44 -22.82528 -43.24177 28 ft 7 kts 158°
2026-04-30 02:44 -22.82555 -43.24180 28 ft 2 kts 198°
2026-04-30 02:45 -22.82585 -43.24196 29 ft 10 kts 210°
2026-04-30 02:45 -22.82659 -43.24230 29 ft 11 kts 180°
2026-04-30 02:45 -22.82747 -43.24200 30 ft 13 kts 158°
2026-04-30 02:45 -22.82827 -43.24163 30 ft 12 kts 156°
2026-04-30 02:46 -22.82902 -43.24126 29 ft 12 kts 153°
2026-04-30 02:46 -22.82963 -43.24078 29 ft 10 kts 137°
2026-04-30 02:46 -22.83008 -43.24025 27 ft 9 kts 127°
2026-04-30 02:46 -22.83021 -43.23970 29 ft 8 kts 81°
2026-04-30 02:47 -22.82997 -43.23931 28 ft 0 kts 43°
2026-04-30 02:47 -22.82995 -43.23930 28 ft 0 kts 43°
2026-04-30 02:47 -22.82994 -43.23929 28 ft 1 kts 43°
2026-04-30 02:48 -22.82986 -43.23920 27 ft 3 kts 43°
2026-04-30 02:48 -22.82961 -43.23897 27 ft 5 kts 37°
2026-04-30 02:48 -22.82920 -43.23876 27 ft 5 kts
2026-04-30 02:48 -22.82889 -43.23896 27 ft 7 kts 321°
2026-04-30 02:49 -22.82863 -43.23931 27 ft 6 kts 306°
2026-04-30 02:49 -22.82765 -43.24076 31 ft 60 kts 305°
2026-04-30 02:49 -22.82320 -43.24753 27 ft 156 kts 306°
2026-04-30 02:49 -22.81582 -43.25844 607 ft 189 kts 304°
2026-04-30 02:50 -22.80812 -43.27024 1815 ft 190 kts 304°
2026-04-30 02:50 -22.80054 -43.28204 3018 ft 194 kts 306°
2026-04-30 02:50 -22.79246 -43.29450 3973 ft 213 kts 306°
2026-04-30 02:50 -22.78354 -43.30824 4760 ft 228 kts 307°
2026-04-30 02:51 -22.77400 -43.32278 5427 ft 247 kts 307°
2026-04-30 02:51 -22.76345 -43.33863 5819 ft 270 kts 307°
2026-04-30 02:51 -22.75243 -43.35516 6180 ft 276 kts 306°
2026-04-30 02:51 -22.74102 -43.37235 6537 ft 279 kts 306°
2026-04-30 02:52 -22.73055 -43.38977 6859 ft 281 kts 297°
2026-04-30 02:52 -22.72524 -43.41020 7180 ft 283 kts 271°
2026-04-30 02:52 -22.72878 -43.43112 7923 ft 286 kts 246°
2026-04-30 02:52 -22.74075 -43.44798 8593 ft 289 kts 218°
2026-04-30 02:53 -22.75902 -43.45692 9258 ft 292 kts 189°
2026-04-30 02:53 -22.77926 -43.45572 9851 ft 295 kts 166°
2026-04-30 02:53 -22.79970 -43.45264 10318 ft 298 kts 184°
2026-04-30 02:53 -22.82002 -43.45707 10848 ft 300 kts 198°
2026-04-30 02:54 -22.84001 -43.46403 11378 ft 305 kts 199°
2026-04-30 02:54 -22.86132 -43.47120 11511 ft 338 kts 197°
2026-04-30 02:54 -22.88507 -43.47829 11694 ft 371 kts 195°
2026-04-30 02:54 -22.91045 -43.48492 12551 ft 379 kts 194°
2026-04-30 02:55 -22.93648 -43.49114 13537 ft 385 kts 194°
2026-04-30 02:55 -22.96263 -43.49702 14386 ft 390 kts 194°
2026-04-30 02:55 -22.98948 -43.50285 15188 ft 396 kts 194°
2026-04-30 02:55 -23.01679 -43.50869 15998 ft 401 kts 194°
2026-04-30 02:56 -23.04423 -43.51450 16783 ft 405 kts 194°
2026-04-30 02:56 -23.07189 -43.52034 17567 ft 409 kts 195°
2026-04-30 02:56 -23.10037 -43.52636 18333 ft 414 kts 195°
2026-04-30 02:56 -23.12840 -43.53228 18936 ft 419 kts 195°
2026-04-30 02:57 -23.15724 -43.53838 19533 ft 424 kts 195°
2026-04-30 02:57 -23.18641 -43.54456 20116 ft 429 kts 195°
2026-04-30 02:57 -23.21597 -43.55082 20684 ft 434 kts 195°
2026-04-30 02:57 -23.24586 -43.55715 21261 ft 439 kts 196°
2026-04-30 02:58 -23.27581 -43.56350 21871 ft 444 kts 196°
2026-04-30 02:58 -23.30639 -43.56999 22470 ft 449 kts 196°
2026-04-30 02:58 -23.33711 -43.57651 23063 ft 454 kts 196°
2026-04-30 02:58 -23.36839 -43.58315 23677 ft 459 kts 197°
2026-04-30 02:59 -23.39995 -43.58985 24239 ft 463 kts 197°
2026-04-30 02:59 -23.43178 -43.59661 24841 ft 467 kts 197°
2026-04-30 02:59 -23.46381 -43.60341 25453 ft 470 kts 197°
2026-04-30 02:59 -23.49571 -43.61018 26061 ft 474 kts 197°
2026-04-30 03:00 -23.52829 -43.61711 26629 ft 478 kts 197°
2026-04-30 03:00 -23.56105 -43.62409 27222 ft 482 kts 197°
2026-04-30 03:00 -23.59395 -43.63146 27792 ft 484 kts 199°
2026-04-30 03:00 -23.62606 -43.64241 28353 ft 478 kts 209°
2026-04-30 03:01 -23.65467 -43.65948 28919 ft 471 kts 221°
2026-04-30 03:01 -23.67983 -43.68225 29459 ft 467 kts 229°
2026-04-30 03:01 -23.70277 -43.70762 30003 ft 468 kts 232°
2026-04-30 03:01 -23.72482 -43.73351 30438 ft 471 kts 233°
2026-04-30 03:02 -23.74740 -43.75987 30885 ft 473 kts 232°
2026-04-30 03:02 -23.77000 -43.78557 31435 ft 473 kts 231°
2026-04-30 03:02 -23.79317 -43.81128 32010 ft 470 kts 231°
2026-04-30 03:02 -23.81607 -43.83628 32589 ft 468 kts 230°
2026-04-30 03:03 -23.83916 -43.86129 33150 ft 466 kts 230°
2026-04-30 03:03 -23.88518 -43.91100 34121 ft 464 kts 231°
2026-04-30 03:03 -23.90812 -43.93580 34559 ft 462 kts 231°
2026-04-30 03:04 -23.93085 -43.96041 35043 ft 458 kts 231°
2026-04-30 03:04 -23.95344 -43.98488 35510 ft 455 kts 231°
2026-04-30 03:04 -23.97563 -44.00895 35968 ft 452 kts 231°
2026-04-30 03:04 -23.99795 -44.03318 36414 ft 448 kts 231°
2026-04-30 03:05 -24.01989 -44.05699 36812 ft 447 kts 231°
2026-04-30 03:05 -24.04203 -44.08103 37193 ft 445 kts 231°
2026-04-30 03:05 -24.06401 -44.10485 37574 ft 443 kts 231°
2026-04-30 03:05 -24.08587 -44.12853 37914 ft 442 kts 231°
2026-04-30 03:06 -24.12933 -44.17561 38017 ft 440 kts 231°
2026-04-30 03:06 -24.17295 -44.22291 38020 ft 440 kts 231°
2026-04-30 03:07 -24.21624 -44.26988 38020 ft 441 kts 231°
2026-04-30 03:07 -24.25987 -44.31726 38019 ft 441 kts 231°
2026-04-30 03:08 -24.30346 -44.36465 38022 ft 441 kts 231°
2026-04-30 03:08 -24.34709 -44.41212 38044 ft 441 kts 231°
2026-04-30 03:09 -24.39063 -44.45959 38027 ft 445 kts 231°
2026-04-30 03:09 -24.43468 -44.50761 38024 ft 445 kts 231°
2026-04-30 03:10 -24.47846 -44.55539 38026 ft 445 kts 231°
2026-04-30 03:10 -24.52221 -44.60382 38017 ft 445 kts 231°
2026-04-30 03:11 -24.56543 -44.65221 38035 ft 445 kts 231°
2026-04-30 03:11 -24.60889 -44.70085 38032 ft 445 kts 231°
2026-04-30 03:12 -24.65203 -44.74912 38030 ft 445 kts 231°
2026-04-30 03:12 -24.69547 -44.79774 38026 ft 444 kts 232°
2026-04-30 03:13 -24.73877 -44.84628 38040 ft 444 kts 232°
2026-04-30 03:13 -24.78203 -44.89480 38022 ft 444 kts 232°
2026-04-30 03:14 -24.82498 -44.94305 38045 ft 443 kts 232°
2026-04-30 03:14 -24.86820 -44.99163 38028 ft 443 kts 232°
2026-04-30 03:15 -24.91131 -45.04015 38030 ft 442 kts 232°
2026-04-30 03:15 -24.95437 -45.08868 38027 ft 442 kts 232°
2026-04-30 03:16 -24.99723 -45.13703 38027 ft 442 kts 232°
2026-04-30 03:16 -25.04033 -45.18569 38025 ft 442 kts 232°
2026-04-30 03:17 -25.08310 -45.23409 38026 ft 442 kts 232°
2026-04-30 03:17 -25.12604 -45.28289 38033 ft 443 kts 232°
2026-04-30 03:18 -25.16874 -45.33133 38031 ft 442 kts 233°
2026-04-30 03:18 -25.21173 -45.38011 38027 ft 442 kts 233°
2026-04-30 03:19 -25.25461 -45.42879 38030 ft 442 kts 233°
2026-04-30 03:19 -25.29743 -45.47745 38028 ft 442 kts 233°
2026-04-30 03:20 -25.34034 -45.52626 38031 ft 442 kts 233°
2026-04-30 03:20 -25.38294 -45.57478 38034 ft 442 kts 233°
2026-04-30 03:21 -25.42583 -45.62368 38029 ft 442 kts 233°
2026-04-30 03:21 -25.46868 -45.67259 38034 ft 442 kts 233°
2026-04-30 03:22 -25.51124 -45.72122 38034 ft 442 kts 233°
2026-04-30 03:22 -25.55401 -45.77014 38030 ft 441 kts 233°
2026-04-30 03:23 -25.59637 -45.81862 38032 ft 439 kts 234°
2026-04-30 03:23 -25.63888 -45.86736 38032 ft 439 kts 234°
2026-04-30 03:24 -25.67407 -45.90787 38031 ft 438 kts 234°
2026-04-30 03:24 -25.72330 -45.96466 38031 ft 438 kts 234°
2026-04-30 03:25 -25.75842 -46.00510 38034 ft 437 kts 234°
2026-04-30 03:25 -25.80062 -46.05371 38030 ft 437 kts 234°
2026-04-30 03:26 -25.84289 -46.10244 38036 ft 437 kts 234°
2026-04-30 03:26 -25.88491 -46.15094 38035 ft 437 kts 234°
2026-04-30 03:27 -25.92709 -46.19966 38037 ft 436 kts 235°
2026-04-30 03:27 -25.96901 -46.24814 38034 ft 436 kts 235°
2026-04-30 03:28 -26.01114 -46.29693 38031 ft 436 kts 235°
2026-04-30 03:28 -26.05296 -46.34541 38028 ft 436 kts 235°
2026-04-30 03:29 -26.09495 -46.39412 38031 ft 434 kts 235°
2026-04-30 03:29 -26.13666 -46.44255 38030 ft 433 kts 235°
2026-04-30 03:30 -26.17809 -46.49076 38030 ft 433 kts 235°
2026-04-30 03:30 -26.21976 -46.53929 38036 ft 433 kts 235°
2026-04-30 03:31 -26.26109 -46.58762 38039 ft 430 kts 236°
2026-04-30 03:31 -26.30221 -46.63572 38031 ft 427 kts 236°
2026-04-30 03:32 -26.34320 -46.68366 38030 ft 425 kts 236°
2026-04-30 03:32 -26.38399 -46.73140 38029 ft 425 kts 236°
2026-04-30 03:33 -26.42447 -46.77888 38028 ft 424 kts 236°
2026-04-30 03:33 -26.46526 -46.82672 38029 ft 424 kts 236°
2026-04-30 03:34 -26.50605 -46.87458 38029 ft 424 kts 236°
2026-04-30 03:34 -26.54655 -46.92217 38029 ft 425 kts 236°
2026-04-30 03:35 -26.58714 -46.96989 38036 ft 425 kts 236°
2026-04-30 03:35 -26.62788 -47.01805 38028 ft 425 kts 237°
2026-04-30 03:36 -26.66831 -47.06601 38025 ft 425 kts 237°
2026-04-30 03:36 -26.70875 -47.11400 38041 ft 425 kts 237°
2026-04-30 03:37 -26.74944 -47.16243 38026 ft 426 kts 237°
2026-04-30 03:37 -26.78976 -47.21051 38029 ft 426 kts 237°
2026-04-30 03:38 -26.83034 -47.25894 38026 ft 425 kts 237°
2026-04-30 03:38 -26.87084 -47.30733 38028 ft 425 kts 237°
2026-04-30 03:39 -26.91107 -47.35550 38026 ft 425 kts 237°
2026-04-30 03:39 -26.95156 -47.40405 38030 ft 425 kts 238°
2026-04-30 03:40 -26.99171 -47.45220 38026 ft 424 kts 238°
2026-04-30 03:40 -27.03205 -47.50064 38026 ft 424 kts 238°
2026-04-30 03:41 -27.07237 -47.54910 38026 ft 424 kts 238°
2026-04-30 03:41 -27.11244 -47.59730 38087 ft 424 kts 238°
2026-04-30 03:42 -27.15262 -47.64568 38028 ft 423 kts 238°
2026-04-30 03:42 -27.19249 -47.69378 38023 ft 422 kts 238°
2026-04-30 03:43 -27.23257 -47.74218 38029 ft 422 kts 238°
2026-04-30 03:43 -27.27261 -47.79058 38029 ft 422 kts 238°
2026-04-30 03:44 -27.31267 -47.83905 38031 ft 422 kts 238°
2026-04-30 03:44 -27.35254 -47.88735 38031 ft 422 kts 238°
2026-04-30 03:45 -27.39227 -47.93564 38029 ft 422 kts 239°
2026-04-30 03:45 -27.43193 -47.98435 38034 ft 422 kts 239°
2026-04-30 03:46 -27.47143 -48.03291 38045 ft 422 kts 239°
2026-04-30 03:46 -27.51112 -48.08165 38038 ft 422 kts 239°
2026-04-30 03:47 -27.55093 -48.13056 38041 ft 422 kts 239°
2026-04-30 03:47 -27.59065 -48.17942 38024 ft 423 kts 239°
2026-04-30 03:48 -27.63014 -48.22805 38060 ft 423 kts 238°
2026-04-30 03:48 -27.67009 -48.27732 38039 ft 424 kts 238°
2026-04-30 03:49 -27.70970 -48.32628 38042 ft 424 kts 238°
2026-04-30 03:49 -27.74946 -48.37551 38042 ft 424 kts 238°
2026-04-30 03:50 -27.78932 -48.42486 38047 ft 424 kts 238°
2026-04-30 03:50 -27.82869 -48.47366 38046 ft 425 kts 238°
2026-04-30 03:51 -27.86891 -48.52352 38047 ft 426 kts 238°
2026-04-30 03:51 -27.90862 -48.57282 38044 ft 426 kts 238°
2026-04-30 03:52 -27.94869 -48.62262 38051 ft 426 kts 238°
2026-04-30 03:52 -27.98845 -48.67211 38054 ft 427 kts 238°
2026-04-30 03:53 -28.02817 -48.72157 38043 ft 426 kts 238°
2026-04-30 03:53 -28.06794 -48.77117 38051 ft 426 kts 238°
2026-04-30 03:54 -28.10783 -48.82100 38045 ft 426 kts 238°
2026-04-30 03:54 -28.14774 -48.87091 38052 ft 427 kts 238°
2026-04-30 03:55 -28.18732 -48.92045 38049 ft 426 kts 238°
2026-04-30 03:55 -28.22706 -48.97031 38053 ft 426 kts 238°
2026-04-30 03:56 -28.26653 -49.02007 38047 ft 426 kts 238°
2026-04-30 03:56 -28.30637 -49.06982 38043 ft 426 kts 238°
2026-04-30 03:57 -28.34641 -49.11946 38065 ft 425 kts 237°
2026-04-30 03:57 -28.38614 -49.16873 38047 ft 425 kts 237°
2026-04-30 03:58 -28.42604 -49.21830 38056 ft 425 kts 237°
2026-04-30 03:58 -28.46592 -49.26793 38058 ft 425 kts 237°
2026-04-30 03:59 -28.50555 -49.31739 38066 ft 425 kts 237°
2026-04-30 03:59 -28.54534 -49.36706 38057 ft 425 kts 237°
2026-04-30 04:00 -28.58502 -49.41662 38056 ft 425 kts 237°
2026-04-30 04:00 -28.62494 -49.46652 38061 ft 425 kts 237°
2026-04-30 04:01 -28.66470 -49.51630 38057 ft 425 kts 237°
2026-04-30 04:01 -28.70424 -49.56585 38060 ft 425 kts 236°
2026-04-30 04:02 -28.74411 -49.61588 38088 ft 425 kts 237°
2026-04-30 04:02 -28.78386 -49.66582 38059 ft 425 kts 237°
2026-04-30 04:03 -28.82338 -49.71553 38066 ft 425 kts 237°
2026-04-30 04:03 -28.86307 -49.76552 38069 ft 425 kts 237°
2026-04-30 04:04 -28.90276 -49.81536 38071 ft 427 kts 236°
2026-04-30 04:04 -28.94372 -49.86488 38067 ft 428 kts 235°
2026-04-30 04:05 -28.98474 -49.91376 38073 ft 428 kts 235°
2026-04-30 04:05 -29.02598 -49.96296 38080 ft 427 kts 235°
2026-04-30 04:06 -29.06681 -50.01177 38080 ft 426 kts 235°
2026-04-30 04:06 -29.10787 -50.06094 38090 ft 427 kts 235°
2026-04-30 04:07 -29.14864 -50.10984 38109 ft 424 kts 235°
2026-04-30 04:08 -29.20943 -50.18282 38099 ft 420 kts 235°
2026-04-30 04:08 -29.24939 -50.23090 38096 ft 417 kts 235°
2026-04-30 04:09 -29.28937 -50.27908 38100 ft 417 kts 235°
2026-04-30 04:09 -29.32934 -50.32731 38098 ft 417 kts 235°
2026-04-30 04:10 -29.36904 -50.37525 38101 ft 417 kts 235°
2026-04-30 04:10 -29.40904 -50.42361 38113 ft 417 kts 235°
2026-04-30 04:11 -29.44866 -50.47157 38102 ft 416 kts 235°
2026-04-30 04:11 -29.48846 -50.51992 38105 ft 415 kts 235°
2026-04-30 04:12 -29.52800 -50.56838 38108 ft 415 kts 236°
2026-04-30 04:12 -29.56646 -50.61702 38094 ft 413 kts 236°
2026-04-30 04:13 -29.60487 -50.66608 38096 ft 411 kts 236°
2026-04-30 04:13 -29.64316 -50.71492 38083 ft 410 kts 236°
2026-04-30 04:14 -29.68112 -50.76339 38082 ft 410 kts 236°
2026-04-30 04:14 -29.71929 -50.81215 38079 ft 410 kts 236°
2026-04-30 04:15 -29.75746 -50.86095 38077 ft 410 kts 236°
2026-04-30 04:15 -29.79536 -50.90948 38079 ft 409 kts 236°
2026-04-30 04:16 -29.83339 -50.95822 38073 ft 408 kts 236°
2026-04-30 04:16 -29.87137 -51.00697 38073 ft 408 kts 236°
2026-04-30 04:17 -29.90904 -51.05538 38075 ft 408 kts 236°
2026-04-30 04:17 -29.94699 -51.10421 38074 ft 408 kts 236°
2026-04-30 04:18 -29.98460 -51.15283 38077 ft 407 kts 237°
2026-04-30 04:18 -30.01376 -51.20707 38074 ft 393 kts 252°
2026-04-30 04:19 -30.03341 -51.26581 38076 ft 391 kts 254°
2026-04-30 04:19 -30.05237 -51.32488 38075 ft 392 kts 254°
2026-04-30 04:20 -30.07164 -51.38312 38074 ft 389 kts 253°
2026-04-30 04:20 -30.09124 -51.44147 38071 ft 389 kts 253°
2026-04-30 04:21 -30.11073 -51.49936 38071 ft 389 kts 253°
2026-04-30 04:21 -30.13037 -51.55778 38072 ft 389 kts 253°
2026-04-30 04:22 -30.14992 -51.61599 38072 ft 388 kts 253°
2026-04-30 04:22 -30.16943 -51.67422 38070 ft 387 kts 253°
2026-04-30 04:23 -30.18880 -51.73212 38075 ft 388 kts 253°
2026-04-30 04:23 -30.20811 -51.78996 38073 ft 388 kts 253°
2026-04-30 04:24 -30.22750 -51.84815 38077 ft 388 kts 253°
2026-04-30 04:24 -30.24365 -51.89666 38074 ft 388 kts 253°
2026-04-30 04:25 -30.26300 -51.95490 38075 ft 388 kts 253°
2026-04-30 04:25 -30.28238 -52.01335 38078 ft 388 kts 253°
2026-04-30 04:26 -30.30163 -52.07133 38078 ft 388 kts 253°
2026-04-30 04:26 -30.32109 -52.12963 38078 ft 389 kts 252°
2026-04-30 04:27 -30.34065 -52.18811 38077 ft 389 kts 252°
2026-04-30 04:27 -30.36005 -52.24618 38078 ft 389 kts 253°
2026-04-30 04:28 -30.37951 -52.30470 38084 ft 388 kts 253°
2026-04-30 04:28 -30.39883 -52.36322 38080 ft 389 kts 253°
2026-04-30 04:29 -30.41819 -52.42184 38081 ft 389 kts 253°
2026-04-30 04:29 -30.42772 -52.45075 38217 ft 389 kts 253°
2026-04-30 04:29 -30.43738 -52.48002 38363 ft 388 kts 253°
2026-04-30 04:29 -30.44704 -52.50932 38486 ft 388 kts 253°
2026-04-30 04:30 -30.45668 -52.53861 38644 ft 387 kts 253°
2026-04-30 04:30 -30.46618 -52.56746 38778 ft 387 kts 253°
2026-04-30 04:30 -30.47577 -52.59662 38881 ft 387 kts 253°
2026-04-30 04:30 -30.48536 -52.62583 39004 ft 387 kts 253°
2026-04-30 04:31 -30.49495 -52.65505 39112 ft 387 kts 253°
2026-04-30 04:31 -30.50442 -52.68405 39226 ft 388 kts 253°
2026-04-30 04:31 -30.51395 -52.71329 39345 ft 388 kts 253°
2026-04-30 04:31 -30.52354 -52.74270 39458 ft 388 kts 253°
2026-04-30 04:32 -30.53312 -52.77205 39581 ft 389 kts 253°
2026-04-30 04:32 -30.54271 -52.80143 39706 ft 389 kts 252°
2026-04-30 04:32 -30.55219 -52.83046 39822 ft 389 kts 252°
2026-04-30 04:32 -30.56181 -52.85997 39941 ft 390 kts 252°
2026-04-30 04:33 -30.57142 -52.88943 40051 ft 390 kts 253°
2026-04-30 04:33 -30.59065 -52.94852 40073 ft 392 kts 252°
2026-04-30 04:34 -30.60982 -53.00749 40081 ft 392 kts 253°
2026-04-30 04:34 -30.62909 -53.06689 40080 ft 392 kts 252°
2026-04-30 04:35 -30.64820 -53.12598 40084 ft 392 kts 252°
2026-04-30 04:35 -30.66730 -53.18537 40082 ft 392 kts 252°
2026-04-30 04:36 -30.68637 -53.24458 40085 ft 392 kts 252°
2026-04-30 04:36 -30.70538 -53.30359 40084 ft 392 kts 252°
2026-04-30 04:37 -30.72448 -53.36299 40083 ft 392 kts 252°
2026-04-30 04:37 -30.74390 -53.42226 40084 ft 392 kts 252°
2026-04-30 04:38 -30.76348 -53.48110 40087 ft 392 kts 252°
2026-04-30 04:38 -30.78320 -53.54033 40087 ft 392 kts 252°
2026-04-30 04:39 -30.80284 -53.59948 40086 ft 392 kts 252°
2026-04-30 04:39 -30.82235 -53.65833 40088 ft 392 kts 252°
2026-04-30 04:40 -30.84197 -53.71764 40086 ft 392 kts 252°
2026-04-30 04:40 -30.86145 -53.77663 40077 ft 393 kts 252°
2026-04-30 04:41 -30.88109 -53.83621 40086 ft 393 kts 252°
2026-04-30 04:41 -30.90058 -53.89541 40087 ft 393 kts 252°
2026-04-30 04:42 -30.92015 -53.95500 40082 ft 393 kts 252°
2026-04-30 04:42 -30.93958 -54.01428 40087 ft 394 kts 252°
2026-04-30 04:43 -30.95914 -54.07402 40081 ft 393 kts 252°
2026-04-30 04:43 -30.97985 -54.13284 40081 ft 396 kts 246°
2026-04-30 04:44 -31.01451 -54.18389 40085 ft 409 kts 230°
2026-04-30 04:44 -31.05698 -54.22808 40084 ft 412 kts 228°
2026-04-30 04:45 -31.09995 -54.27251 40083 ft 411 kts 229°
2026-04-30 04:45 -31.14192 -54.31725 40083 ft 411 kts 230°
2026-04-30 04:46 -31.18395 -54.36270 40083 ft 411 kts 230°
2026-04-30 04:46 -31.22586 -54.40819 40084 ft 411 kts 230°
2026-04-30 04:47 -31.26752 -54.45346 40082 ft 411 kts 230°
2026-04-30 04:47 -31.30936 -54.49898 40106 ft 409 kts 230°
2026-04-30 04:48 -31.35086 -54.54417 40083 ft 409 kts 230°
2026-04-30 04:48 -31.39230 -54.58936 40084 ft 409 kts 230°
2026-04-30 04:49 -31.43399 -54.63489 40077 ft 409 kts 230°
2026-04-30 04:49 -31.47556 -54.67996 40075 ft 409 kts 230°
2026-04-30 04:50 -31.51749 -54.72511 40078 ft 409 kts 230°
2026-04-30 04:50 -31.55952 -54.77034 40085 ft 409 kts 229°
2026-04-30 04:51 -31.60126 -54.81532 40083 ft 410 kts 230°
2026-04-30 04:51 -31.64336 -54.86075 40083 ft 409 kts 229°
2026-04-30 04:52 -31.68494 -54.90565 40075 ft 408 kts 229°
2026-04-30 04:52 -31.72682 -54.95097 40079 ft 408 kts 230°
2026-04-30 04:53 -31.76844 -54.99605 40076 ft 408 kts 230°
2026-04-30 04:53 -31.81026 -55.04142 40076 ft 409 kts 229°
2026-04-30 04:54 -31.85189 -55.08663 40070 ft 409 kts 230°
2026-04-30 04:54 -31.89375 -55.13214 40072 ft 409 kts 230°
2026-04-30 04:55 -31.93542 -55.17751 40075 ft 409 kts 230°
2026-04-30 04:55 -31.97726 -55.22314 40107 ft 409 kts 229°
2026-04-30 04:56 -32.01902 -55.26870 40072 ft 407 kts 229°
2026-04-30 04:56 -32.06041 -55.31402 40071 ft 407 kts 229°
2026-04-30 04:57 -32.10188 -55.35967 40072 ft 407 kts 229°
2026-04-30 04:57 -32.14315 -55.40502 40072 ft 407 kts 229°
2026-04-30 04:58 -32.18471 -55.45065 40070 ft 407 kts 229°
2026-04-30 04:58 -32.22605 -55.49608 40073 ft 407 kts 229°
2026-04-30 04:59 -32.26754 -55.54173 40073 ft 407 kts 229°
2026-04-30 04:59 -32.30877 -55.58714 40067 ft 407 kts 229°
2026-04-30 05:00 -32.35014 -55.63277 40068 ft 405 kts 229°
2026-04-30 05:00 -32.39131 -55.67824 40067 ft 404 kts 229°
2026-04-30 05:01 -32.43229 -55.72358 40069 ft 404 kts 229°
2026-04-30 05:01 -32.47347 -55.76919 40063 ft 404 kts 229°
2026-04-30 05:02 -32.51428 -55.81444 40065 ft 404 kts 229°
2026-04-30 05:02 -32.55541 -55.86012 40064 ft 404 kts 229°
2026-04-30 05:03 -32.59655 -55.90585 40061 ft 404 kts 229°
2026-04-30 05:03 -32.63753 -55.95147 40061 ft 403 kts 229°
2026-04-30 05:04 -32.67808 -55.99680 40064 ft 401 kts 229°
2026-04-30 05:04 -32.71865 -56.04233 40058 ft 400 kts 229°
2026-04-30 05:05 -32.75926 -56.08782 40060 ft 400 kts 229°
2026-04-30 05:05 -32.79963 -56.13303 40060 ft 400 kts 229°
2026-04-30 05:06 -32.86012 -56.20084 40058 ft 399 kts 229°
2026-04-30 05:06 -32.90057 -56.24626 40061 ft 399 kts 229°
2026-04-30 05:07 -32.94067 -56.29134 40058 ft 398 kts 230°
2026-04-30 05:07 -32.98101 -56.33680 40056 ft 398 kts 230°
2026-04-30 05:08 -33.02094 -56.38210 40058 ft 396 kts 230°
2026-04-30 05:08 -33.06069 -56.42725 40054 ft 395 kts 230°
2026-04-30 05:09 -33.10057 -56.47255 40060 ft 395 kts 230°
2026-04-30 05:09 -33.14038 -56.51781 40053 ft 395 kts 230°
2026-04-30 05:10 -33.17982 -56.56271 40057 ft 395 kts 230°
2026-04-30 05:10 -33.21967 -56.60817 40055 ft 395 kts 230°
2026-04-30 05:11 -33.25943 -56.65353 40055 ft 395 kts 230°
2026-04-30 05:11 -33.29929 -56.69903 40056 ft 395 kts 230°
2026-04-30 05:12 -33.33888 -56.74426 40081 ft 395 kts 230°
2026-04-30 05:12 -33.37868 -56.78979 40060 ft 394 kts 230°
2026-04-30 05:13 -33.41813 -56.83499 40052 ft 394 kts 230°
2026-04-30 05:13 -33.45784 -56.88056 40055 ft 394 kts 230°
2026-04-30 05:14 -33.49733 -56.92592 40052 ft 395 kts 230°
2026-04-30 05:14 -33.53696 -56.97151 40053 ft 395 kts 230°
2026-04-30 05:15 -33.57640 -57.01694 40052 ft 394 kts 230°
2026-04-30 05:15 -33.61602 -57.06263 40055 ft 394 kts 230°
2026-04-30 05:16 -33.65556 -57.10830 40055 ft 395 kts 230°
2026-04-30 05:16 -33.69493 -57.15383 40070 ft 393 kts 230°
2026-04-30 05:17 -33.73434 -57.19946 40053 ft 393 kts 230°
2026-04-30 05:17 -33.77373 -57.24515 40054 ft 392 kts 230°
2026-04-30 05:18 -33.81267 -57.29064 40055 ft 392 kts 230°
2026-04-30 05:18 -33.85195 -57.33651 39963 ft 394 kts 230°
2026-04-30 05:19 -33.87067 -57.35833 39764 ft 392 kts 230°
2026-04-30 05:19 -33.89028 -57.38120 39504 ft 393 kts 230°
2026-04-30 05:19 -33.90964 -57.40379 39179 ft 392 kts 230°
2026-04-30 05:19 -33.92923 -57.42665 38775 ft 393 kts 230°
2026-04-30 05:20 -33.94880 -57.44951 38264 ft 391 kts 230°
2026-04-30 05:20 -33.96836 -57.47236 37752 ft 391 kts 229°
2026-04-30 05:20 -33.98798 -57.49529 37309 ft 392 kts 229°
2026-04-30 05:20 -34.00756 -57.51820 36862 ft 393 kts 229°
2026-04-30 05:21 -34.02699 -57.54094 36461 ft 393 kts 229°
2026-04-30 05:21 -34.04665 -57.56395 35984 ft 392 kts 229°
2026-04-30 05:21 -34.06630 -57.58696 35520 ft 393 kts 229°
2026-04-30 05:21 -34.08570 -57.60971 35076 ft 393 kts 229°
2026-04-30 05:22 -34.10546 -57.63290 34609 ft 394 kts 228°
2026-04-30 05:22 -34.12516 -57.65603 34093 ft 394 kts 228°
2026-04-30 05:22 -34.14488 -57.67919 33514 ft 396 kts 228°
2026-04-30 05:22 -34.16449 -57.70225 32980 ft 398 kts 228°
2026-04-30 05:23 -34.18438 -57.72566 32439 ft 401 kts 228°
2026-04-30 05:23 -34.20442 -57.74925 31923 ft 403 kts 228°
2026-04-30 05:23 -34.22453 -57.77295 31389 ft 406 kts 228°
2026-04-30 05:23 -34.23802 -57.78884 31022 ft 407 kts 228°
2026-04-30 05:24 -34.25820 -57.81303 30275 ft 404 kts 231°
2026-04-30 05:24 -34.27952 -57.84930 28441 ft 395 kts 243°
2026-04-30 05:24 -34.28792 -57.86926 27641 ft 391 kts 244°
2026-04-30 05:24 -34.29938 -57.89832 26511 ft 385 kts 245°
2026-04-30 05:25 -34.31106 -57.92725 25401 ft 380 kts 244°
2026-04-30 05:25 -34.32312 -57.95562 24308 ft 376 kts 243°
2026-04-30 05:25 -34.33545 -57.98341 23209 ft 372 kts 242°
2026-04-30 05:25 -34.34777 -58.01041 22073 ft 367 kts 242°
2026-04-30 05:26 -34.36020 -58.03724 20976 ft 362 kts 242°
2026-04-30 05:26 -34.37257 -58.06377 19949 ft 358 kts 242°
2026-04-30 05:26 -34.38475 -58.08979 18965 ft 354 kts 242°
2026-04-30 05:26 -34.39686 -58.11565 18029 ft 349 kts 242°
2026-04-30 05:27 -34.40866 -58.14087 17231 ft 349 kts 242°
2026-04-30 05:27 -34.42060 -58.16639 16450 ft 347 kts 242°
2026-04-30 05:27 -34.43249 -58.19183 15781 ft 345 kts 242°
2026-04-30 05:27 -34.44433 -58.21717 15213 ft 344 kts 242°
2026-04-30 05:28 -34.45612 -58.24244 14694 ft 342 kts 241°
2026-04-30 05:28 -34.46785 -58.26757 14189 ft 342 kts 241°
2026-04-30 05:28 -34.47940 -58.29236 13682 ft 341 kts 241°
2026-04-30 05:28 -34.49109 -58.31744 13138 ft 343 kts 241°
2026-04-30 05:29 -34.50270 -58.34239 12634 ft 340 kts 241°
2026-04-30 05:29 -34.51427 -58.36725 12160 ft 338 kts 241°
2026-04-30 05:29 -34.52570 -58.39182 11661 ft 328 kts 241°
2026-04-30 05:29 -34.53685 -58.41582 11292 ft 326 kts 241°
2026-04-30 05:30 -34.54783 -58.43947 11072 ft 324 kts 241°
2026-04-30 05:30 -34.55836 -58.46214 10956 ft 288 kts 241°
2026-04-30 05:30 -34.56774 -58.48233 10871 ft 265 kts 241°
2026-04-30 05:30 -34.57665 -58.50157 10551 ft 255 kts 242°
2026-04-30 05:31 -34.58550 -58.52070 10002 ft 259 kts 242°
2026-04-30 05:31 -34.59433 -58.53980 9496 ft 259 kts 242°
2026-04-30 05:31 -34.60302 -58.55862 9030 ft 258 kts 242°
2026-04-30 05:31 -34.61180 -58.57762 8565 ft 257 kts 242°
2026-04-30 05:32 -34.62055 -58.59655 8118 ft 256 kts 242°
2026-04-30 05:32 -34.62924 -58.61537 7687 ft 255 kts 242°
2026-04-30 05:32 -34.63782 -58.63397 7246 ft 254 kts 242°
2026-04-30 05:32 -34.64646 -58.65270 6850 ft 254 kts 242°
2026-04-30 05:33 -34.65492 -58.67105 6438 ft 253 kts 242°
2026-04-30 05:33 -34.66341 -58.68966 6052 ft 252 kts 242°
2026-04-30 05:33 -34.67190 -58.70833 5680 ft 252 kts 242°
2026-04-30 05:33 -34.68042 -58.72702 5306 ft 252 kts 242°
2026-04-30 05:34 -34.68880 -58.74534 5084 ft 250 kts 242°
2026-04-30 05:34 -34.69730 -58.76390 5043 ft 253 kts 242°
2026-04-30 05:34 -34.70572 -58.78228 4945 ft 241 kts 242°
2026-04-30 05:34 -34.71366 -58.79957 4914 ft 229 kts 242°
2026-04-30 05:35 -34.72214 -58.81573 4888 ft 228 kts 232°
2026-04-30 05:35 -34.73472 -58.82729 4710 ft 229 kts 205°
2026-04-30 05:35 -34.75073 -58.82971 4493 ft 237 kts 173°
2026-04-30 05:35 -34.76512 -58.82161 4172 ft 230 kts 140°
2026-04-30 05:36 -34.77328 -58.80556 3831 ft 221 kts 108°
2026-04-30 05:36 -34.77678 -58.78818 3593 ft 201 kts 102°
2026-04-30 05:36 -34.77953 -58.77255 3458 ft 175 kts 103°
2026-04-30 05:36 -34.78201 -58.75866 3366 ft 163 kts 103°
2026-04-30 05:37 -34.78438 -58.74549 3217 ft 159 kts 103°
2026-04-30 05:37 -34.78673 -58.73238 3010 ft 158 kts 103°
2026-04-30 05:37 -34.78906 -58.71941 2807 ft 156 kts 103°
2026-04-30 05:37 -34.79138 -58.70651 2604 ft 155 kts 103°
2026-04-30 05:38 -34.79369 -58.69372 2402 ft 154 kts 103°
2026-04-30 05:38 -34.79595 -58.68115 2197 ft 154 kts 104°
2026-04-30 05:38 -34.79824 -58.66844 1988 ft 153 kts 104°
2026-04-30 05:38 -34.80052 -58.65583 1783 ft 152 kts 104°
2026-04-30 05:39 -34.80278 -58.64329 1572 ft 151 kts 104°
2026-04-30 05:39 -34.80503 -58.63083 1366 ft 151 kts 103°
2026-04-30 05:39 -34.80727 -58.61839 1161 ft 150 kts 103°
2026-04-30 05:39 -34.80950 -58.60603 963 ft 149 kts 103°
2026-04-30 05:40 -34.81176 -58.59376 738 ft 147 kts 103°
2026-04-30 05:40 -34.81393 -58.58180 550 ft 143 kts 101°
2026-04-30 05:40 -34.81600 -58.57009 362 ft 141 kts 103°
2026-04-30 05:40 -34.81817 -58.55832 206 ft 144 kts 102°
2026-04-30 05:41 -34.82025 -58.54666 87 ft 132 kts 102°
2026-04-30 05:41 -34.82192 -58.53732 70 ft 94 kts 102°
2026-04-30 05:41 -34.82308 -58.53097 77 ft 62 kts 102°
2026-04-30 05:41 -34.82389 -58.52650 72 ft 44 kts 103°
2026-04-30 05:42 -34.82447 -58.52317 70 ft 38 kts 102°
2026-04-30 05:42 -34.82493 -58.52054 72 ft 25 kts 102°
2026-04-30 05:42 -34.82511 -58.51901 68 ft 15 kts 82°
2026-04-30 05:42 -34.82450 -58.51820 70 ft 13 kts 25°
2026-04-30 05:43 -34.82361 -58.51792 67 ft 13 kts 13°
2026-04-30 05:43 -34.82283 -58.51789 69 ft 5 kts 336°
2026-04-30 05:43 -34.82263 -58.51825 67 ft 9 kts 295°
2026-04-30 05:43 -34.82246 -58.51914 74 ft 12 kts 282°
2026-04-30 05:44 -34.82226 -58.52018 68 ft 15 kts 284°
2026-04-30 05:44 -34.82200 -58.52148 73 ft 18 kts 283°
2026-04-30 05:44 -34.82167 -58.52320 72 ft 22 kts 283°
2026-04-30 05:44 -34.82137 -58.52499 67 ft 21 kts 280°
2026-04-30 05:45 -34.82100 -58.52672 76 ft 22 kts 287°
2026-04-30 05:45 -34.82059 -58.52846 71 ft 21 kts 283°
2026-04-30 05:45 -34.82024 -58.53026 74 ft 22 kts 283°
2026-04-30 05:45 -34.81989 -58.53208 70 ft 22 kts 283°
2026-04-30 05:46 -34.81953 -58.53383 71 ft 21 kts 284°
2026-04-30 05:46 -34.81925 -58.53515 72 ft 12 kts 284°
2026-04-30 05:46 -34.81897 -58.53613 71 ft 12 kts 302°
2026-04-30 05:46 -34.81831 -58.53673 68 ft 12 kts 334°
2026-04-30 05:47 -34.81755 -58.53717 70 ft 11 kts 334°
2026-04-30 05:47 -34.81697 -58.53768 67 ft 10 kts 307°
2026-04-30 05:47 -34.81658 -58.53824 67 ft 9 kts 314°
2026-04-30 05:47 -34.81611 -58.53876 67 ft 9 kts 319°
2026-04-30 05:48 -34.81577 -58.53911 75 ft 5 kts 320°
2026-04-30 05:48 -34.81561 -58.53927 65 ft 3 kts 320°
2026-04-30 05:48 -34.81547 -58.53941 70 ft 0 kts 320°